Flag for U.S.A. Weather past 2 weeks in Mesquite, Texas, U.S.A.

Now
72 °F

Clear.


Feels Like: 72 °F
Forecast: 72 / 93 °F
Wind: 3 mph from South

Location: Mesquite Metro Airport

Current Time: Aug 31, 2015 at 4:33:27 AM

Latest Report: Aug 31, 2015 at 3:55 AM


Visibility: 10 mi

Pressure: 29.98 "Hg

Humidity: 81%

Dew point: 66 °F

Location of MesquiteLocation

Historic Weather in Mesquite — Graph

°F

Mesquite temperature yesterday

Maximum temperature yesterday: 93 °F (at 1:50 PM)
Minimum temperature yesterday: 71 °F (at 4:15 AM)
Average temperature yesterday: 79 °F

Past Weeks' High & Low Weather Summary

 TemperatureHumidityPressure
High100 °F (Aug 21, 7:50 PM)100% (Aug 20, 5:50 PM)30.16 "Hg (Aug 20, 5:50 PM)
Low64 °F (Aug 20, 6:50 AM)17% (Aug 26, 4:50 PM)29.72 "Hg (Aug 18, 6:50 PM)
Average79 °F69%29.97 "Hg
* Reported Aug 16 3:15 AM — Aug 31 3:35 AM, Mesquite, Weather by CustomWeather, © 2015

Note: Actual official high and low records may vary slightly from our data, if they occured in-between our weather recording intervals... More about our weather records

Advertising

Mesquite weather history for previous 24 hours

 ConditionsComfort  
Time TempWeatherWind HumidityBarometerVisibility
3:35 AM
Mon, Aug 31
72 °FClear.3 mph81%29.98 "Hg10 mi
3:15 AM73 °FClear.5 mph81%29.98 "Hg10 mi
2:55 AM73 °FClear.6 mph79%29.98 "Hg10 mi
2:35 AM73 °FClear.5 mph80%29.98 "Hg10 mi
2:15 AM73 °FClear.7 mph81%29.97 "Hg10 mi
1:55 AM74 °FClear.7 mph78%29.97 "Hg10 mi
1:35 AM74 °FClear.6 mph76%29.97 "Hg10 mi
1:15 AM73 °FClear.3 mph81%29.97 "Hg10 mi
12:55 AM74 °FClear.No wind72%29.97 "Hg10 mi
12:35 AM74 °FClear.No wind72%29.96 "Hg10 mi
12:15 AM75 °FClear.3 mph69%29.96 "Hg10 mi
11:55 PM
Sun, Aug 30
75 °FClear.5 mph73%29.96 "Hg10 mi
11:35 PM76 °FClear.5 mph71%29.95 "Hg10 mi
11:15 PM77 °FClear.7 mph68%29.96 "Hg10 mi
10:35 PM78 °FClear.6 mph67%29.96 "Hg10 mi
10:15 PM78 °FClear.5 mph66%29.96 "Hg10 mi
9:55 PM78 °FClear.3 mph65%29.96 "Hg10 mi
9:35 PM80 °FClear.5 mph59%29.96 "Hg10 mi
9:15 PM82 °FClear.6 mph56%29.96 "Hg10 mi
8:55 PM82 °FClear.6 mph55%29.95 "Hg10 mi
8:35 PM82 °FSunny.5 mph54%29.95 "Hg10 mi
8:15 PM83 °FSunny.5 mph52%29.94 "Hg10 mi
7:50 PM84 °FSunny.7 mph51%29.94 "Hg10 mi
6:50 PM93 °FPartly sunny.9 mph34%29.94 "Hg10 mi
5:50 PM91 °FScattered clouds.14 mph38%29.93 "Hg10 mi
4:50 PM91 °FScattered clouds.14 mph36%29.94 "Hg10 mi
3:50 PM93 °FScattered clouds.10 mph34%29.95 "Hg10 mi
2:50 PM93 °FScattered clouds.8 mph32%29.97 "Hg10 mi
1:50 PM93 °FScattered clouds.8 mph36%29.99 "Hg10 mi
12:50 PM91 °FSunny.8 mph38%30.01 "Hg10 mi
11:50 AM88 °FSunny.9 mph46%30.02 "Hg10 mi
10:50 AM84 °FScattered clouds.10 mph51%30.03 "Hg10 mi
9:50 AM81 °FScattered clouds.7 mph62%30.01 "Hg10 mi
8:50 AM75 °FScattered clouds.7 mph74%30.01 "Hg10 mi
7:50 AM73 °FClear.5 mph83%30.00 "Hg10 mi
6:50 AM81 °FClear.3 mph62%29.99 "Hg7 mi
6:15 AM71 °FPassing clouds.5 mph87%29.99 "Hg10 mi
5:55 AM72 °FPassing clouds.3 mph86%29.98 "Hg10 mi
5:35 AM72 °FPassing clouds.6 mph85%29.98 "Hg10 mi
5:15 AM72 °FOvercast.5 mph84%29.97 "Hg10 mi
4:55 AM73 °FPassing clouds.7 mph83%29.97 "Hg10 mi
4:35 AM72 °FClear.6 mph82%29.96 "Hg10 mi
4:15 AM71 °FClear.5 mph84%29.96 "Hg10 mi
Weather by CustomWeather, © 2015

See weather overviewHow to use our weather pages